Vorticity
nan nan nan nan nan nan nan nan nan nan nan nan nan nan nan nan nan nan nan nan nan nan nan nan nan nan nan nan nan nan nan nan nan nan nan nan nan nan nan nan nan nan nan nan
nan 6 5 9 10 8 5 7 8 6 9 10 8 10 12 13 15 11 5 6 8 8 6 10 10 10 13 8 6 7 7 7 6 7 8 8 9 10 10 9 12 11 10 nan
nan 6 6 13 13 10 12 12 7 6 7 10 12 16 13 9 10 17 16 8 7 5 10 9 6 9 8 9 8 7 6 7 8 6 6 7 8 9 10 10 10 11 9 nan
nan 9 10 8 11 11 11 10 9 9 11 10 9 16 17 11 8 11 14 13 10 8 3 8 8 6 6 7 7 8 8 8 7 8 7 7 7 8 8 10 10 10 9 nan
nan 11 7 17 19 3 3 10 11 11 13 12 10 6 8 13 14 9 9 12 14 7 6 4 5 8 4 4 6 7 9 10 7 8 5 6 7 6 9 11 12 9 10 nan
nan 8 14 10 11 20 17 10 12 12 16 14 11 8 7 10 7 13 12 6 9 11 8 7 7 6 6 9 8 9 10 10 10 9 8 6 7 7 7 12 8 8 10 nan
nan 10 16 15 14 15 14 8 14 16 12 13 18 14 7 10 3 4 13 23 16 9 11 14 12 8 9 8 8 9 13 13 11 8 9 9 9 9 9 12 7 8 6 nan
nan 8 3 4 7 11 9 14 12 6 1 5 16 24 21 10 2 1 11 21 29 26 12 9 8 11 13 13 12 10 11 13 9 9 10 9 9 10 13 8 7 9 8 nan
nan 4 1 6 11 9 7 15 12 7 8 13 9 5 15 12 19 18 7 -1 10 18 17 13 8 7 10 11 13 15 12 11 11 10 10 10 11 10 10 8 10 12 12 nan
nan 12 10 11 13 12 10 10 14 12 14 9 12 16 17 9 23 15 4 9 11 6 7 7 9 7 6 9 10 16 13 12 11 11 10 11 10 12 10 10 10 11 15 nan
nan 17 9 12 8 21 21 13 22 10 2 4 14 4 2 20 22 18 17 14 11 8 8 8 14 8 6 7 14 14 13 12 10 11 10 11 10 10 9 9 9 10 10 nan
nan 15 5 9 12 12 17 19 18 14 3 9 8 8 2 5 16 36 37 11 3 3 8 11 16 11 13 15 18 10 12 11 10 10 11 9 10 8 8 8 9 8 9 nan
nan 4 8 17 10 -3 3 10 3 13 15 9 5 -3 1 4 5 26 28 15 6 4 5 16 9 16 17 16 13 11 10 11 10 10 9 9 9 8 8 9 8 8 8 nan
nan 8 6 3 7 2 0 4 14 3 -0 5 4 1 1 6 7 9 17 7 0 3 6 13 8 16 18 17 9 11 10 10 9 9 9 9 9 8 8 9 7 9 9 nan
nan 9 10 7 9 8 11 8 9 5 3 3 4 9 13 17 7 5 4 7 9 4 10 8 10 15 11 11 14 12 11 9 10 10 9 8 9 9 8 8 9 9 10 nan
nan 8 9 11 14 9 9 23 23 18 16 15 14 16 21 17 2 8 6 14 10 7 8 4 10 16 10 7 17 18 11 9 9 9 9 9 7 8 10 8 9 9 10 nan
nan 10 10 12 8 13 21 21 9 7 8 14 16 14 16 8 6 7 15 14 10 12 12 7 10 16 9 6 16 16 12 11 11 9 8 9 10 8 8 10 9 9 9 nan
nan 11 11 12 13 13 13 2 4 17 3 3 9 13 12 11 15 9 9 12 14 9 10 12 12 16 11 5 12 12 11 11 10 9 9 7 10 8 8 8 7 11 10 nan
nan 8 10 14 12 9 14 11 9 10 13 19 11 8 9 12 15 13 10 9 19 17 11 11 13 14 13 7 9 11 12 11 8 8 9 9 11 9 9 7 9 9 8 nan
nan 5 5 7 12 13 17 6 8 13 14 5 6 5 6 13 16 5 -9 -1 8 19 18 8 6 18 17 7 5 12 15 10 10 10 9 11 12 11 8 8 11 9 8 nan
nan 9 11 9 8 14 13 4 5 5 8 -1 0 3 8 11 6 3 -0 5 7 7 9 11 12 15 16 9 5 11 15 11 10 10 10 11 10 11 10 10 11 11 11 nan
nan 9 12 12 9 14 6 2 6 2 5 6 6 13 15 11 11 8 9 8 8 7 11 11 17 16 15 11 6 12 15 11 11 10 11 10 9 8 10 12 10 10 10 nan
nan 7 9 8 3 1 3 22 16 -1 3 9 11 14 10 11 11 9 8 10 11 10 11 12 16 18 14 13 6 11 16 10 9 13 11 8 7 10 11 9 9 9 9 nan
nan 10 12 8 8 3 4 12 14 16 13 10 14 13 11 13 9 9 11 11 12 12 10 15 16 15 10 11 6 10 15 10 11 11 8 7 7 10 9 10 9 11 11 nan
nan 13 16 12 7 8 10 12 11 5 18 20 9 12 16 17 13 12 11 11 10 11 9 12 20 17 12 10 5 14 14 10 12 8 7 7 7 7 5 8 16 13 11 nan
nan nan nan nan nan nan nan nan nan nan nan nan nan nan nan nan nan nan nan nan nan nan nan nan nan nan nan nan nan nan nan nan nan nan nan nan nan nan nan nan nan nan nan nan
CAPE
0 0 0 0 0 0 0 0 0 0 0 0 0 0 0 0 0 0 0 0 0 21 120 48 157 166 329 1349 1926 2531 2262 2590 2310 2943 1899 1379 1266 1530 2211 2198 2343 2730 2423 2158
0 0 0 0 0 0 0 0 0 0 0 0 0 0 0 0 0 0 0 0 0 9 29 194 229 741 1200 1822 1823 2267 2160 2206 2665 2477 2260 2162 2475 1743 1876 2258 2509 2822 2496 2488
0 0 0 0 0 0 0 0 0 0 0 0 0 0 0 0 0 0 9 0 0 0 77 81 169 553 1110 983 1722 1557 2125 2235 2856 2244 2115 2317 2741 3167 3057 2780 3028 2831 2569 2542
0 0 1 12 6 0 1 0 0 0 4 0 0 0 0 0 0 0 0 11 0 0 0 122 179 459 1262 731 680 897 1505 1544 1956 2476 1376 1867 2008 1910 2477 2942 2617 2632 2622 2463
0 7 9 20 3 28 16 3 4 2 14 11 0 0 0 0 0 0 0 2 28 0 0 0 69 162 195 269 205 246 1162 1663 1550 2109 1949 1362 2464 2268 3596 2911 3359 2727 2649 2477
20 11 43 44 22 38 38 10 1 15 12 40 0 8 0 0 0 0 3 0 12 29 0 0 0 19 0 2 20 57 153 1373 1481 2314 2050 2351 2579 2457 2630 2830 2947 2678 2391 1814
14 16 19 6 26 136 77 58 75 60 63 60 0 22 0 0 0 0 41 53 38 21 0 3 0 0 0 0 0 37 1028 588 1718 1894 2300 2270 3700 2738 4646 3217 2661 2477 1870 1736
39 33 37 1 9 90 118 131 93 35 54 80 69 57 5 0 0 0 3 78 146 85 26 7 5 0 0 0 0 0 88 995 1367 1489 2363 2621 3323 2935 4058 2941 2813 2271 1956 1932
114 42 25 23 47 216 200 90 117 46 54 112 28 44 36 26 0 0 4 16 7 5 4 0 0 0 26 103 829 626 206 446 1192 2486 2897 2875 3017 3563 3299 3293 3947 2701 2446 2580
53 78 29 14 90 117 195 165 158 29 66 16 49 35 1 97 11 7 34 98 124 60 0 5 86 406 872 1177 1349 1224 467 886 2639 2754 2928 3056 3420 3642 3634 3510 3124 2840 2272 2159
64 121 135 105 130 146 242 195 178 110 59 85 1 0 43 79 56 75 6 137 155 9 0 0 208 623 1030 1145 961 1321 489 2477 2723 2983 3253 3251 3390 2939 2686 2823 2424 2383 2348 1766
141 142 144 73 79 118 10 219 121 68 21 100 1 2 12 28 5 3 91 185 78 0 0 0 1138 1187 867 846 727 1245 2141 2487 2900 2974 3046 3028 2671 2456 2378 2134 2204 1969 1875 1328
98 50 77 22 78 66 0 2 1 47 151 2 0 0 24 0 0 0 132 64 6 0 0 0 1004 831 1469 1081 1510 2171 2537 2566 2669 2657 2478 2455 2160 2030 2130 1943 1785 1499 1508 1258
44 63 46 76 66 164 0 66 57 53 149 34 31 0 0 0 5 0 0 1 1 0 0 0 62 979 1948 1820 2041 2365 2331 2373 2447 2156 1904 1864 1902 1858 1767 1586 1514 1397 981 1048
38 64 65 55 102 168 89 90 143 79 2 21 11 0 2 0 2 0 0 7 0 0 0 0 0 1222 1901 1820 1903 2169 2147 2104 1920 1746 1672 1731 1792 1547 1389 1152 1045 923 1139 844
55 28 40 37 40 74 111 110 72 12 7 0 2 4 21 20 0 2 28 1 0 0 0 0 0 1199 1930 1657 1316 2099 2028 1761 1659 1374 1451 1518 1243 940 934 1054 1115 1266 1043 953
50 33 54 2 4 25 34 76 1 0 0 56 111 105 97 20 7 17 82 14 12 0 0 0 0 114 1603 1324 1390 1531 1453 1243 1582 1298 1123 805 699 836 919 951 870 963 1298 925
6 40 39 33 43 5 1 17 18 1 1 13 40 87 117 70 117 14 11 4 55 21 2 0 0 1788 1504 1433 1504 1307 1080 1053 1260 793 472 487 764 775 823 723 828 1043 1094 1094
5 20 49 53 28 1 0 36 88 78 1 41 83 54 40 41 41 15 210 215 257 71 23 0 0 1633 1915 1578 1441 1248 1059 1077 642 420 436 437 836 776 783 632 875 1266 1011 975
9 13 26 17 50 29 128 3 0 1 2 43 16 1 17 19 11 0 58 6 37 99 25 5 20 768 1953 1566 1508 1325 1205 785 556 358 383 400 687 764 446 684 1275 1086 978 981
78 11 16 14 44 11 75 5 0 32 12 4 7 11 9 42 7 1 0 0 0 2 28 2 1 585 1260 1548 1507 1454 952 718 493 432 406 761 851 606 1025 1004 1164 968 926 1014
10 81 156 103 28 63 95 20 8 52 17 10 5 8 16 17 10 3 0 0 0 0 0 0 23 503 1924 1577 1770 1407 1218 743 501 458 667 1025 752 466 861 1090 845 899 929 813
87 132 124 75 176 239 240 187 21 103 66 2 7 20 19 20 13 3 2 0 0 0 0 0 86 1298 1897 1681 1565 1550 1235 651 544 704 938 905 932 778 719 948 1065 798 784 567
83 97 194 161 89 94 214 253 121 76 55 39 28 14 18 19 12 9 9 1 0 0 0 1 83 1412 1535 1613 1615 1490 798 510 505 1187 1018 961 892 746 885 926 880 630 764 554
133 139 27 72 158 74 85 92 100 34 17 10 6 10 12 37 17 9 9 0 0 0 9 230 777 1894 1602 1364 1496 1386 618 613 928 1234 1073 980 725 662 905 164 302 670 0 72
173 128 36 87 88 172 65 99 42 0 7 9 17 7 5 6 20 15 1 8 5 0 0 112 547 1469 1439 1821 1587 978 487 899 1068 986 1063 863 576 1034 623 176 0 1 1 1